Orbital Elements at Epoch 2459000.5 (2020-May-31.0) TDB
Reference: JPL 28 (heliocentric ecliptic J2000)
Element | Value | Uncertainty (1-sigma) | Units |
e | .0820383641441111 | 3.334e-08 | |
a | 2.45225349917436 | 7.8384e-09 | au |
q | 2.251074633635423 | 8.1994e-08 | au |
i | 1.275360521656095 | 3.8616e-06 | deg |
node | 53.10136617683592 | 0.00019567 | deg |
peri | 60.13829965859421 | 0.00019833 | deg |
M | 170.0342886398719 | 3.141e-05 | deg |
tp | 2458338.008242507688 (2018-Aug-07.50824251) | 0.00012213 | TDB |
period | 1402.640812067987 3.84 | 6.7251e-06 1.841e-08 | d yr |
n | .2566587232473531 | 1.2306e-09 | deg/d |
Q | 2.653432364713297 | 8.4815e-09 | au |
|
| | Orbit Determination Parameters
Additional Information
|